[[{"header":{"parameterUnit":"m.s-1","parameterCategory":2,"la1":30.2991,"la2":30.254,"lo1":-89.0895,"lo2":-89.0444,"dy":0.0017,"dx":0.0017,"nx":28,"ny":28,"refTime":"2023-08-18T21:00:00:Z","depth":"0","parameterNumber":2,"parameterNumberName":"U-component_of_CURRENTS"},"data":[0,0,0,0,0,0,0,0,0,0,0,0,0,0,0,0,0,0,0,0,0,0,0,0,0,0,0,0,0,0,0,0,0,0,0,0,0,0,0,0,0,0,0,0,0,0,0,0,0,0,0,0,0,0,0,0,0,0,0.2303,0.2304,0,0.2323,0.2323,0.2323,0.2373,0.2375,0.2376,0.2377,0.2396,0.2395,0.2394,0,0,0,0,0,0,0,0,0,0,0,0,0,0.2244,0.2245,0.2303,0.2304,0.2304,0.2323,0.2323,0.2323,0.2373,0.2375,0.2377,0.2378,0.2396,0.2395,0.2394,0,0,0,0,0,0,0,0,0,0,0,0,0,0.2264,0.2245,0.2303,0.2334,0.2337,0.2323,0.2323,0.2323,0.2373,0.2375,0.2377,0.2379,0.2396,0.2395,0.2394,0.2346,0,0,0.239,0.239,0,0,0,0,0,0,0,0,0.2263,0.2266,0.2329,0.2332,0.2335,0.2351,0.2309,0.2332,0.2372,0.2356,0.2378,0.238,0.2381,0.2381,0.2376,0.2347,0.2347,0.239,0.239,0.2389,0.2389,0,0,0,0,0,0,0,0.2262,0.2265,0.2308,0.2329,0.2333,0.2325,0.233,0.2313,0.2354,0.2357,0.2362,0.2369,0.2383,0.2377,0.2377,0.2348,0.239,0.2389,0.2389,0.2388,0.2258,0.2256,0,0,0,0,0,0,0.2267,0.2264,0.2307,0.2309,0.2307,0.2325,0.2331,0.2341,0.2355,0.236,0.2367,0.2371,0.2378,0.2378,0.2378,0.2326,0.2389,0.2388,0.2387,0.2261,0.2258,0.2255,0,0,0,0,0,0,0.2266,0.2271,0.2306,0.2289,0.2294,0.2325,0.2335,0.234,0.2337,0.2362,0.2367,0.236,0.238,0.2379,0.2352,0.2327,0.2388,0.2386,0.2264,0.226,0.2256,0.2219,0,0,0,0,0,0,0.2264,0.227,0.2262,0.229,0.2295,0.2283,0.2334,0.234,0.234,0.2345,0.2357,0.2361,0.2381,0.2354,0.2351,0.2326,0.2386,0.2268,0.2262,0.2258,0.2224,0.2214,0.2206,0,0,0,0,0,0.2261,0.224,0.2261,0.2266,0.2289,0.2282,0.2282,0.2309,0.2337,0.2317,0.233,0.2361,0.2319,0.2351,0.2348,0.2323,0.227,0.2264,0.2258,0.2228,0.2216,0.2206,0,0,0,0,0,0,0.2203,0.2244,0.2268,0.2259,0.2267,0.2292,0.2274,0.2298,0.2291,0.2298,0.2329,0.2331,0.2302,0.23,0.2334,0.2264,0.2297,0.229,0.2275,0.2264,0.2255,0.2277,0.2385,0,0,0,0,0,0.2188,0.2187,0.2222,0.2209,0.2214,0.2242,0.224,0.226,0.2268,0.2269,0.2279,0.2278,0.2269,0.226,0.2251,0.2205,0.2226,0.2182,0.2173,0.2166,0.2177,0.2168,0.2161,0.2234,0.2235,0.2235,0,0,0.2162,0.2183,0.2182,0.2196,0.2207,0.2199,0.2244,0.2235,0.2227,0.2268,0.2243,0.2251,0.225,0.2214,0.2198,0.2212,0.2152,0.2158,0.2152,0.2168,0.2161,0.2154,0.2148,0.223,0.2231,0.2232,0,0,0.2111,0.2128,0.2115,0.2121,0.2137,0.2149,0.2146,0.2165,0.2169,0.2146,0.2178,0.2166,0.2142,0.2143,0.2141,0.2066,0.2111,0.2054,0.2026,0.2016,0.2011,0.2007,0.2024,0.2022,0.2044,0.2044,0.2044,0,0.2075,0.2077,0.2102,0.2095,0.2097,0.2127,0.2113,0.2109,0.2114,0.2114,0.2129,0.2112,0.2111,0.2086,0.2066,0.2051,0.2065,0.2076,0.2009,0.2005,0.2002,0.2021,0.2019,0.2041,0.2041,0.2042,0.2042,0,0.2028,0.2028,0.2014,0.2025,0.2019,0.2005,0.2023,0.2009,0.2022,0.2035,0.2016,0.2017,0.2017,0.2,0.2016,0.1984,0.2009,0.2009,0.205,0.1994,0.2015,0.2014,0.2037,0.2038,0.2039,0.204,0,0,0.1953,0.1979,0.1976,0.1977,0.1987,0.1977,0.1956,0.1951,0.195,0.1943,0.1941,0.1919,0.1946,0.1943,0.1955,0.1943,0.193,0.1967,0.1968,0.2009,0.1934,0.1969,0.1972,0.1926,0.1926,0.1925,0.1961,0,0.1908,0.1895,0.1917,0.1886,0.1879,0.1903,0.1885,0.1884,0.1893,0.1889,0.1897,0.1895,0.1915,0.1922,0.1912,0.194,0.1926,0.1922,0.1961,0.1963,0.2022,0.1971,0.2009,0.2046,0.196,0.196,0.196,0,0.1851,0.1857,0.1836,0.1841,0.1839,0.1822,0.1817,0.1808,0.1818,0.183,0.1841,0.1865,0.1867,0.1879,0.19,0.1904,0.1913,0.1925,0.1926,0.1977,0.1996,0.2084,0.2048,0.2095,0.1959,0.1959,0.1959,0,0.1788,0.1788,0.1774,0.1776,0.1787,0.1777,0.1776,0.1787,0.1784,0.1801,0.1811,0.1829,0.1842,0.1858,0.1911,0.1902,0.1941,0.1925,0.196,0.1964,0.2014,0.2023,0.2052,0.1911,0.1911,0.1911,0.1911,0,0.1731,0.1712,0.1745,0.1737,0.1708,0.1735,0.1711,0.1721,0.1742,0.1737,0.1782,0.1789,0.1836,0.1876,0.1907,0.1958,0.1939,0.1959,0.1969,0.2,0.2006,0.2065,0.2087,0.1912,0.1912,0.1912,0.1911,0,0.1659,0.1685,0.1661,0.1677,0.1677,0.1656,0.1666,0.1657,0.1692,0.1693,0.17,0.1758,0.1814,0.1878,0.1919,0.1955,0.1995,0.2006,0.206,0.2075,0.2135,0.2153,0.2043,0.2027,0.2039,0.204,0.2041,0,0.1613,0.1603,0.161,0.1597,0.1602,0.1588,0.158,0.1617,0.1621,0.1671,0.1668,0.1732,0.1774,0.1888,0.198,0.2061,0.2016,0.2118,0.2086,0.2148,0.2175,0.2038,0.2021,0.2139,0.214,0.2141,0.2143,0,0.1534,0.1546,0.1543,0.1525,0.151,0.1498,0.15,0.15,0.155,0.1577,0.1622,0.1666,0.1798,0.192,0.2049,0.2097,0.2107,0.2144,0.2185,0.2239,0.2113,0.2101,0.2125,0.2154,0.2153,0.2152,0.2151,0.2151,0.1469,0.1455,0.1466,0.1442,0.1427,0.1417,0.1399,0.1432,0.1453,0.1498,0.1564,0.1646,0.1847,0.2042,0.2129,0.2302,0.2161,0.2298,0.2312,0.2162,0.2145,0.2207,0.2258,0.2257,0.2257,0.2257,0.2256,0,0.1391,0.1401,0.1382,0.1361,0.1325,0.1347,0.1349,0.1344,0.137,0.1447,0.1504,0.1711,0.1926,0.2121,0.2378,0.2468,0.2383,0.2479,0.2323,0.2297,0.2364,0.2375,0.2481,0.2481,0.2481,0.2481,0.2481,0.2481,0.135,0.1328,0.1337,0.1275,0.1257,0.1214,0.1213,0.1234,0.1285,0.1379,0.1488,0.1593,0.1881,0.2323,0.2584,0.2608,0.253,0.2482,0.2438,0.257,0.2554,0.2538,0.2552,0.2694,0.2694,0.2302,0.2301,0.2299]},{"header":{"parameterUnit":"m.s-1","parameterCategory":2,"la1":30.2991,"la2":30.254,"lo1":-89.0895,"lo2":-89.0444,"dy":0.0017,"dx":0.0017,"nx":28,"ny":28,"refTime":"2023-08-18T21:00:00:Z","depth":"0","parameterNumber":3,"parameterNumberName":"V-component_of_CURRENTS"},"data":[0,0,0,0,0,0,0,0,0,0,0,0,0,0,0,0,0,0,0,0,0,0,0,0,0,0,0,0,0,0,0,0,0,0,0,0,0,0,0,0,0,0,0,0,0,0,0,0,0,0,0,0,0,0,0,0,0,0,-0.0445,-0.0445,0,-0.044,-0.044,-0.044,-0.0416,-0.0416,-0.0415,-0.0415,-0.0363,-0.0362,-0.0361,0,0,0,0,0,0,0,0,0,0,0,0,0,-0.0403,-0.0404,-0.0445,-0.0445,-0.0445,-0.044,-0.044,-0.044,-0.0416,-0.0416,-0.0415,-0.0414,-0.0363,-0.0362,-0.0361,0,0,0,0,0,0,0,0,0,0,0,0,0,-0.0411,-0.0405,-0.0445,-0.0434,-0.0433,-0.044,-0.044,-0.044,-0.0416,-0.0416,-0.0415,-0.0414,-0.0363,-0.0362,-0.0361,-0.0365,0,0,-0.0356,-0.0355,0,0,0,0,0,0,0,0,-0.0411,-0.0413,-0.0435,-0.0434,-0.0433,-0.0429,-0.0406,-0.0413,-0.0416,-0.0421,-0.0415,-0.0414,-0.0382,-0.0379,-0.0378,-0.0363,-0.036,-0.0356,-0.0355,-0.0354,-0.0354,0,0,0,0,0,0,0,-0.041,-0.0413,-0.0442,-0.0435,-0.0434,-0.0418,-0.0419,-0.0407,-0.0403,-0.0421,-0.0419,-0.0421,-0.0381,-0.038,-0.0377,-0.036,-0.0356,-0.0355,-0.0354,-0.0353,-0.0389,-0.0391,0,0,0,0,0,0,-0.0416,-0.0412,-0.0442,-0.0442,-0.0422,-0.042,-0.042,-0.043,-0.0404,-0.0401,-0.0421,-0.042,-0.0383,-0.0379,-0.0375,-0.0409,-0.0354,-0.0353,-0.0352,-0.0388,-0.039,-0.0392,0,0,0,0,0,0,-0.0415,-0.0419,-0.0442,-0.0427,-0.0429,-0.0422,-0.0432,-0.043,-0.0428,-0.0406,-0.0401,-0.0421,-0.0382,-0.0377,-0.038,-0.0405,-0.0352,-0.0351,-0.0385,-0.0388,-0.0391,-0.0458,0,0,0,0,0,0,-0.0414,-0.0419,-0.0425,-0.0428,-0.043,-0.0452,-0.0433,-0.0431,-0.0431,-0.0429,-0.0404,-0.0399,-0.0381,-0.0383,-0.0379,-0.0402,-0.035,-0.0383,-0.0387,-0.039,-0.0453,-0.0462,-0.047,0,0,0,0,0,-0.0413,-0.0425,-0.0425,-0.0429,-0.044,-0.0453,-0.0453,-0.0443,-0.0432,-0.0437,-0.0429,-0.04,-0.0402,-0.0383,-0.0378,-0.0402,-0.0381,-0.0386,-0.039,-0.0449,-0.046,-0.047,0,0,0,0,0,0,-0.0408,-0.0424,-0.0424,-0.044,-0.0449,-0.0449,-0.0453,-0.0447,-0.0445,-0.0442,-0.0416,-0.0411,-0.0427,-0.0408,-0.0388,-0.0426,-0.039,-0.0393,-0.0437,-0.0447,-0.0455,-0.0446,-0.0349,0,0,0,0,0,-0.0412,-0.0425,-0.0437,-0.0449,-0.0457,-0.0456,-0.0458,-0.0456,-0.0456,-0.0453,-0.044,-0.0434,-0.0441,-0.0438,-0.0437,-0.045,-0.0442,-0.0466,-0.0475,-0.0482,-0.0473,-0.051,-0.0521,-0.0405,-0.0405,-0.0405,0,0,-0.0412,-0.0423,-0.0429,-0.0449,-0.0454,-0.0468,-0.0455,-0.0467,-0.0477,-0.0448,-0.0458,-0.046,-0.0453,-0.0475,-0.048,-0.046,-0.0512,-0.0487,-0.0493,-0.048,-0.0516,-0.0527,-0.0537,-0.0408,-0.0408,-0.0407,0,0,-0.0416,-0.0432,-0.0442,-0.0454,-0.047,-0.0479,-0.0484,-0.0493,-0.0497,-0.0512,-0.0504,-0.0524,-0.0519,-0.053,-0.0532,-0.0587,-0.0557,-0.0588,-0.0618,-0.0655,-0.0665,-0.0673,-0.0678,-0.0686,-0.0591,-0.0591,-0.0591,0,-0.041,-0.0428,-0.0446,-0.0459,-0.0467,-0.0485,-0.0494,-0.0511,-0.052,-0.0524,-0.0523,-0.0547,-0.0548,-0.0577,-0.0607,-0.0605,-0.0608,-0.0578,-0.0666,-0.0674,-0.0681,-0.0684,-0.0692,-0.0594,-0.0594,-0.0594,-0.0593,0,-0.0425,-0.0434,-0.0444,-0.0469,-0.0484,-0.0499,-0.0526,-0.0544,-0.0556,-0.0565,-0.0596,-0.0614,-0.062,-0.0644,-0.0642,-0.0696,-0.0676,-0.0674,-0.0636,-0.0696,-0.0696,-0.0703,-0.06,-0.0598,-0.0597,-0.0596,0,0,-0.0414,-0.0445,-0.0446,-0.045,-0.0488,-0.05,-0.0535,-0.0562,-0.0569,-0.0609,-0.0616,-0.0674,-0.0678,-0.0682,-0.0694,-0.0738,-0.0807,-0.0732,-0.0732,-0.073,-0.0869,-0.0829,-0.0832,-0.0822,-0.0824,-0.0825,-0.0848,0,-0.0413,-0.0429,-0.045,-0.0466,-0.0475,-0.0506,-0.0527,-0.0558,-0.0584,-0.0601,-0.0648,-0.066,-0.0694,-0.0696,-0.0755,-0.0778,-0.0828,-0.0799,-0.0816,-0.0815,-0.0768,-0.084,-0.0814,-0.083,-0.0855,-0.0856,-0.0857,0,-0.0413,-0.0425,-0.0436,-0.045,-0.0456,-0.0472,-0.0502,-0.0524,-0.0566,-0.0579,-0.062,-0.064,-0.0702,-0.0724,-0.0817,-0.0795,-0.0842,-0.0875,-0.0876,-0.0815,-0.0789,-0.0775,-0.0841,-0.0835,-0.0867,-0.0866,-0.0865,0,-0.0387,-0.0409,-0.0415,-0.0423,-0.0452,-0.0459,-0.0476,-0.0513,-0.0522,-0.0559,-0.056,-0.0633,-0.0648,-0.0738,-0.0803,-0.0816,-0.0893,-0.0912,-0.0924,-0.092,-0.0886,-0.0876,-0.094,-0.0998,-0.0998,-0.0998,-0.0998,0,-0.0371,-0.0371,-0.04,-0.0402,-0.0404,-0.0431,-0.0435,-0.0456,-0.0481,-0.0487,-0.054,-0.055,-0.0658,-0.0708,-0.0792,-0.0862,-0.0884,-0.0936,-0.0934,-0.0908,-0.0901,-0.0882,-0.087,-0.0999,-0.0999,-0.0999,-0.0998,0,-0.0335,-0.0354,-0.0358,-0.0383,-0.0388,-0.0389,-0.0404,-0.0406,-0.0425,-0.0434,-0.044,-0.0489,-0.0546,-0.0636,-0.0751,-0.0821,-0.093,-0.0925,-0.0867,-0.0859,-0.0873,-0.0864,-0.103,-0.109,-0.0955,-0.0954,-0.0954,0,-0.0317,-0.0317,-0.034,-0.0341,-0.0349,-0.0356,-0.0356,-0.0377,-0.0384,-0.0397,-0.0397,-0.0433,-0.0461,-0.0582,-0.0704,-0.082,-0.0897,-0.0869,-0.0907,-0.0875,-0.0866,-0.0981,-0.103,-0.089,-0.0889,-0.0888,-0.0888,0,-0.0279,-0.029,-0.0298,-0.0305,-0.0305,-0.0308,-0.0314,-0.0305,-0.0328,-0.0328,-0.0329,-0.0341,-0.0435,-0.0521,-0.0648,-0.0743,-0.0898,-0.0855,-0.0857,-0.0849,-0.0947,-0.1,-0.0847,-0.088,-0.0881,-0.0881,-0.0882,-0.0882,-0.0251,-0.0247,-0.0262,-0.0269,-0.0271,-0.0262,-0.0251,-0.0256,-0.0248,-0.0233,-0.026,-0.0254,-0.0338,-0.0506,-0.0635,-0.077,-0.0863,-0.0816,-0.0816,-0.0945,-0.0991,-0.08,-0.0808,-0.0808,-0.0808,-0.0808,-0.0809,0,-0.0218,-0.0218,-0.0223,-0.0232,-0.023,-0.0238,-0.0228,-0.0214,-0.0193,-0.0171,-0.0165,-0.0161,-0.0266,-0.0408,-0.056,-0.0679,-0.0873,-0.0746,-0.0893,-0.0952,-0.0792,-0.0772,-0.0729,-0.0729,-0.0729,-0.0729,-0.0729,-0.0729,-0.0196,-0.0188,-0.0198,-0.0194,-0.0198,-0.0179,-0.0163,-0.014,-0.0125,-0.0064,-0.0034,-0.0008,0.0069,-0.0231,-0.0448,-0.0573,-0.0772,-0.084,-0.0928,-0.0744,-0.0751,-0.0758,-0.0739,-0.0689,-0.0689,-0.1155,-0.1158,-0.116]}],[{"header":{"parameterUnit":"m.s-1","parameterCategory":2,"la1":30.2991,"la2":30.254,"lo1":-89.0895,"lo2":-89.0444,"dy":0.0017,"dx":0.0017,"nx":28,"ny":28,"refTime":"2023-08-18T21:00:00:Z","depth":"2","parameterNumber":2,"parameterNumberName":"U-component_of_CURRENTS"},"data":[0,0,0,0,0,0,0,0,0,0,0,0,0,0,0,0,0,0,0,0,0,0,0,0,0,0,0,0,0,0,0,0,0,0,0,0,0,0,0,0,0,0,0,0,0,0,0,0,0,0,0,0,0,0,0,0,0,0,-0.1341,-0.134,0,-0.129,-0.1289,-0.1289,-0.1219,-0.1218,-0.1217,-0.1216,-0.1114,-0.1112,-0.111,0,0,0,0,0,0,0,0,0,0,0,0,0,-0.1336,-0.1337,-0.1341,-0.134,-0.134,-0.129,-0.1289,-0.1288,-0.1219,-0.1218,-0.1217,-0.1216,-0.1115,-0.1112,-0.111,0,0,0,0,0,0,0,0,0,0,0,0,0,-0.1315,-0.1337,-0.1341,-0.1301,-0.1297,-0.1291,-0.1289,-0.1288,-0.122,-0.1218,-0.1217,-0.1215,-0.1115,-0.1113,-0.111,-0.1122,0,0,-0.1102,-0.11,0,0,0,0,0,0,0,0,-0.1317,-0.1315,-0.1307,-0.1304,-0.1299,-0.1261,-0.125,-0.1231,-0.122,-0.1247,-0.1216,-0.1215,-0.1161,-0.1155,-0.1146,-0.1117,-0.1113,-0.1101,-0.11,-0.1098,-0.1098,0,0,0,0,0,0,0,-0.1318,-0.1317,-0.1318,-0.1307,-0.1302,-0.1272,-0.1267,-0.1246,-0.121,-0.1244,-0.124,-0.1238,-0.1158,-0.1149,-0.1143,-0.1111,-0.1101,-0.1099,-0.1097,-0.1096,-0.1025,-0.1025,0,0,0,0,0,0,-0.1333,-0.1319,-0.132,-0.1317,-0.1307,-0.1274,-0.1268,-0.1273,-0.1211,-0.1201,-0.1239,-0.1235,-0.1154,-0.1146,-0.1139,-0.1087,-0.1098,-0.1096,-0.1094,-0.1025,-0.1025,-0.1025,0,0,0,0,0,0,-0.1333,-0.1334,-0.1322,-0.1318,-0.1314,-0.1276,-0.1281,-0.1273,-0.1243,-0.1208,-0.1197,-0.1216,-0.1152,-0.1143,-0.1112,-0.1085,-0.1095,-0.1092,-0.1026,-0.1025,-0.1025,-0.1024,0,0,0,0,0,0,-0.1333,-0.1335,-0.1335,-0.1319,-0.1315,-0.1317,-0.1283,-0.1273,-0.1247,-0.124,-0.1185,-0.1175,-0.1151,-0.1116,-0.1109,-0.1081,-0.109,-0.1026,-0.1026,-0.1025,-0.1024,-0.1024,-0.1023,0,0,0,0,0,-0.1334,-0.1348,-0.1335,-0.1335,-0.132,-0.1317,-0.1312,-0.1278,-0.1247,-0.1243,-0.1203,-0.1176,-0.1108,-0.1115,-0.1106,-0.1077,-0.1026,-0.1026,-0.1025,-0.1025,-0.1024,-0.1023,0,0,0,0,0,0,-0.1349,-0.1343,-0.1327,-0.1339,-0.1327,-0.1306,-0.1296,-0.1273,-0.1238,-0.1221,-0.118,-0.1169,-0.1129,-0.1112,-0.112,-0.1057,-0.1059,-0.1057,-0.1062,-0.1061,-0.106,-0.1057,-0.1088,0,0,0,0,0,-0.1354,-0.1356,-0.1348,-0.1353,-0.1347,-0.1317,-0.1307,-0.1285,-0.1259,-0.124,-0.1202,-0.1161,-0.1125,-0.1101,-0.1075,-0.1046,-0.1027,-0.102,-0.1019,-0.1019,-0.1012,-0.0978,-0.0973,-0.1023,-0.1023,-0.1023,0,0,-0.1359,-0.1356,-0.1355,-0.1354,-0.1336,-0.1324,-0.1306,-0.1291,-0.1267,-0.1236,-0.1186,-0.116,-0.112,-0.1083,-0.1063,-0.1061,-0.0995,-0.1018,-0.1018,-0.1011,-0.0977,-0.0972,-0.0967,-0.1023,-0.1023,-0.1023,0,0,-0.1369,-0.1368,-0.1368,-0.1358,-0.134,-0.1325,-0.1319,-0.1293,-0.1265,-0.1236,-0.1196,-0.1155,-0.1111,-0.1069,-0.1044,-0.1026,-0.0997,-0.1015,-0.1001,-0.0968,-0.0963,-0.0959,-0.0929,-0.0922,-0.101,-0.101,-0.101,0,-0.137,-0.1369,-0.1367,-0.1359,-0.1343,-0.1323,-0.1308,-0.1287,-0.125,-0.1225,-0.122,-0.1135,-0.1099,-0.1037,-0.1027,-0.102,-0.1004,-0.1005,-0.0966,-0.0962,-0.0957,-0.0927,-0.0919,-0.101,-0.101,-0.101,-0.101,0,-0.1375,-0.1365,-0.1364,-0.1342,-0.133,-0.1319,-0.1293,-0.1269,-0.1237,-0.1211,-0.1156,-0.1119,-0.1063,-0.1045,-0.1027,-0.097,-0.097,-0.0974,-0.0968,-0.0952,-0.0922,-0.0914,-0.101,-0.101,-0.101,-0.101,0,0,-0.1387,-0.137,-0.1362,-0.1339,-0.1316,-0.1303,-0.1271,-0.1235,-0.1196,-0.1169,-0.1119,-0.1061,-0.104,-0.1011,-0.098,-0.0949,-0.09,-0.0947,-0.0946,-0.0916,-0.083,-0.0712,-0.0692,-0.0901,-0.09,-0.0899,-0.0821,0,-0.1379,-0.136,-0.1353,-0.1313,-0.1295,-0.127,-0.1238,-0.1202,-0.1171,-0.1125,-0.1085,-0.1031,-0.1027,-0.0992,-0.0963,-0.091,-0.0879,-0.0921,-0.0851,-0.0848,-0.0744,-0.0678,-0.068,-0.06,-0.0813,-0.0812,-0.0811,0,-0.1372,-0.1357,-0.1326,-0.1281,-0.127,-0.1244,-0.1182,-0.1155,-0.1103,-0.1078,-0.1036,-0.1006,-0.0938,-0.095,-0.0861,-0.0891,-0.0859,-0.0832,-0.0828,-0.071,-0.0714,-0.065,-0.0577,-0.0798,-0.0799,-0.08,-0.0801,0,-0.1363,-0.133,-0.13,-0.1285,-0.1242,-0.1211,-0.1184,-0.1133,-0.109,-0.1044,-0.1002,-0.0954,-0.089,-0.0866,-0.0793,-0.0828,-0.0704,-0.0745,-0.0615,-0.0608,-0.0587,-0.0578,-0.0691,-0.0692,-0.0692,-0.0692,-0.0692,0,-0.1353,-0.1322,-0.1288,-0.1268,-0.1215,-0.1193,-0.1131,-0.1104,-0.1046,-0.0973,-0.097,-0.0888,-0.0863,-0.0787,-0.0772,-0.0637,-0.068,-0.0584,-0.0564,-0.0585,-0.0577,-0.0738,-0.0744,-0.0689,-0.069,-0.069,-0.0691,0,-0.1342,-0.1324,-0.1284,-0.1234,-0.1209,-0.1172,-0.1095,-0.1042,-0.1006,-0.091,-0.0885,-0.0808,-0.0693,-0.0665,-0.0587,-0.0556,-0.0483,-0.0435,-0.0452,-0.0432,-0.0428,-0.0436,-0.0288,-0.0283,-0.0278,-0.0274,-0.0271,0,-0.1339,-0.1317,-0.1257,-0.1217,-0.1188,-0.1128,-0.1068,-0.1022,-0.0954,-0.0835,-0.0768,-0.0647,-0.0522,-0.037,-0.0288,-0.0212,-0.0326,-0.0199,-0.025,-0.0383,-0.0379,-0.0394,-0.0407,-0.0243,-0.024,-0.0237,-0.0235,0,-0.132,-0.1296,-0.1254,-0.1182,-0.1114,-0.1045,-0.0957,-0.0895,-0.081,-0.0719,-0.0559,-0.0458,-0.0271,-0.0136,-0.003,-0.0024,-0.0213,-0.0139,-0.0264,-0.0322,-0.0327,-0.0328,-0.0345,-0.0213,-0.0215,-0.0217,-0.0218,-0.0219,-0.1289,-0.1256,-0.1192,-0.1117,-0.1049,-0.0946,-0.0866,-0.076,-0.0633,-0.0469,-0.0407,-0.0238,-0.0174,0.0057,0.0099,0.0112,0.0084,-0.0009,-0.0023,-0.0039,-0.0024,-0.0018,0.0155,0.0155,0.0155,0.0155,0.0155,0,-0.1227,-0.1182,-0.1121,-0.1016,-0.0926,-0.0912,-0.0767,-0.0677,-0.0505,-0.0358,-0.0219,-0.0075,0.0051,0.0098,0.0223,0.0267,0.0177,0.0178,0.0036,0.0016,-0.0003,0.0006,0.0197,0.0198,0.0198,0.0198,0,0,-0.1185,-0.1098,-0.1064,-0.0907,-0.0843,-0.0705,-0.062,-0.051,-0.0391,-0.0164,-0.0032,0.0008,0.0099,0.015,0.0168,0.0214,0.0083,0.0181,0.0144,-0.0047,-0.0066,-0.0108,-0.0113,0,0,0,0,0]},{"header":{"parameterUnit":"m.s-1","parameterCategory":2,"la1":30.2991,"la2":30.254,"lo1":-89.0895,"lo2":-89.0444,"dy":0.0017,"dx":0.0017,"nx":28,"ny":28,"refTime":"2023-08-18T21:00:00:Z","depth":"2","parameterNumber":3,"parameterNumberName":"V-component_of_CURRENTS"},"data":[0,0,0,0,0,0,0,0,0,0,0,0,0,0,0,0,0,0,0,0,0,0,0,0,0,0,0,0,0,0,0,0,0,0,0,0,0,0,0,0,0,0,0,0,0,0,0,0,0,0,0,0,0,0,0,0,0,0,0.0288,0.0288,0,0.0327,0.0328,0.0329,0.0263,0.0261,0.0258,0.0256,0.0234,0.0236,0.0237,0,0,0,0,0,0,0,0,0,0,0,0,0,0.0223,0.0225,0.0287,0.0288,0.0288,0.0327,0.0328,0.0329,0.0263,0.026,0.0258,0.0255,0.0234,0.0236,0.0238,0,0,0,0,0,0,0,0,0,0,0,0,0,0.0257,0.0225,0.0287,0.0259,0.0257,0.0327,0.0328,0.0329,0.0264,0.026,0.0257,0.0254,0.0233,0.0235,0.0238,0.0324,0,0,0.0245,0.0246,0,0,0,0,0,0,0,0,0.0255,0.026,0.0263,0.0261,0.0259,0.0285,0.0297,0.0324,0.0265,0.0263,0.0256,0.0252,0.0248,0.0249,0.0267,0.0323,0.0322,0.0246,0.0247,0.0248,0.0249,0,0,0,0,0,0,0,0.0253,0.0258,0.0305,0.0264,0.0261,0.0268,0.0269,0.0303,0.0274,0.0263,0.0258,0.0261,0.0245,0.0265,0.0265,0.0322,0.0245,0.0248,0.0249,0.025,0.0387,0.0389,0,0,0,0,0,0,0.0246,0.0256,0.0303,0.0306,0.0247,0.0272,0.0272,0.0282,0.0275,0.0271,0.0264,0.0258,0.0262,0.0263,0.0264,0.0288,0.0248,0.025,0.0252,0.0385,0.0387,0.039,0,0,0,0,0,0,0.0245,0.025,0.0302,0.028,0.0287,0.0276,0.0287,0.0284,0.0261,0.0277,0.0271,0.0238,0.0259,0.0261,0.0284,0.0289,0.0251,0.0254,0.0382,0.0386,0.0389,0.0385,0,0,0,0,0,0,0.0243,0.025,0.0243,0.028,0.0287,0.0328,0.0291,0.0288,0.0271,0.0262,0.0255,0.0251,0.0257,0.0281,0.0287,0.0291,0.0256,0.038,0.0384,0.0388,0.0382,0.0387,0.0392,0,0,0,0,0,0.0241,0.0252,0.0243,0.0248,0.0283,0.0329,0.0334,0.0316,0.0272,0.0278,0.0275,0.0249,0.031,0.0285,0.0291,0.0297,0.0378,0.0383,0.0387,0.038,0.0386,0.0392,0,0,0,0,0,0,0.0219,0.0248,0.0238,0.0255,0.0281,0.0317,0.0314,0.0304,0.0309,0.0279,0.0282,0.0282,0.0304,0.0317,0.0288,0.0354,0.0339,0.0345,0.0331,0.0337,0.0342,0.0303,0.0258,0,0,0,0,0,0.0215,0.0224,0.026,0.0269,0.0278,0.029,0.0297,0.0288,0.0303,0.0297,0.0296,0.0307,0.0344,0.0346,0.0378,0.0417,0.0408,0.0427,0.0432,0.0436,0.0413,0.0448,0.0452,0.0406,0.0406,0.0406,0,0,0.0205,0.0224,0.0225,0.0264,0.0274,0.0301,0.0284,0.029,0.0303,0.0299,0.0301,0.0321,0.036,0.0401,0.0412,0.04,0.0443,0.0442,0.0444,0.0419,0.0453,0.0457,0.046,0.0409,0.0409,0.0408,0,0,0.0207,0.021,0.022,0.0246,0.0263,0.0284,0.0278,0.0301,0.0294,0.0323,0.0325,0.0351,0.039,0.0427,0.0451,0.051,0.0471,0.0512,0.0497,0.0532,0.0534,0.0537,0.0512,0.0512,0.051,0.051,0.051,0,0.0187,0.021,0.0231,0.0255,0.0264,0.0272,0.0286,0.031,0.0333,0.0335,0.0313,0.0381,0.0409,0.0471,0.0485,0.0516,0.05,0.0464,0.0533,0.0536,0.0538,0.0512,0.0513,0.0511,0.0511,0.051,0.051,0,0.0209,0.0217,0.0227,0.0256,0.0278,0.029,0.0326,0.0332,0.0316,0.0336,0.0366,0.0415,0.0441,0.0474,0.0491,0.0532,0.0502,0.0535,0.0505,0.0542,0.0513,0.0513,0.0511,0.0511,0.0511,0.0511,0,0,0.017,0.0228,0.0221,0.023,0.0269,0.029,0.0316,0.0349,0.0344,0.0372,0.0374,0.0453,0.044,0.0468,0.0499,0.0532,0.054,0.0522,0.0524,0.0471,0.0556,0.0505,0.05,0.0573,0.0573,0.0574,0.052,0,0.0164,0.02,0.0233,0.0251,0.0268,0.029,0.0317,0.0344,0.0356,0.0368,0.0414,0.0431,0.0454,0.0446,0.0487,0.0528,0.0542,0.0547,0.055,0.0549,0.0479,0.0501,0.0491,0.044,0.052,0.052,0.052,0,0.0157,0.0184,0.0199,0.0237,0.0242,0.0251,0.0263,0.0291,0.033,0.0333,0.0353,0.0376,0.0417,0.0433,0.0491,0.0481,0.0502,0.0536,0.0536,0.0484,0.0499,0.0424,0.0437,0.052,0.052,0.052,0.052,0,0.0104,0.0151,0.0153,0.0167,0.022,0.0208,0.0222,0.0257,0.0276,0.0287,0.0286,0.0335,0.0339,0.0392,0.0433,0.0453,0.0484,0.0535,0.0507,0.0502,0.0491,0.0484,0.0573,0.0573,0.0573,0.0573,0.0573,0,0.0082,0.008,0.0116,0.0117,0.0115,0.0151,0.0143,0.0165,0.0191,0.0219,0.0241,0.0271,0.0327,0.0355,0.0405,0.0427,0.0457,0.0484,0.0492,0.0489,0.0482,0.0559,0.0558,0.0571,0.0571,0.0572,0.0572,0,0.0024,0.0049,0.0056,0.0084,0.0088,0.0074,0.0102,0.0114,0.0119,0.015,0.0145,0.0202,0.0229,0.027,0.0343,0.0374,0.0419,0.0422,0.0372,0.0376,0.0416,0.0416,0.0388,0.0385,0.0384,0.0382,0.0381,0,0.0005,-0.0003,0.0017,0.0021,0.0022,0.0018,0.0033,0.0064,0.0094,0.0134,0.0162,0.0166,0.0241,0.0276,0.0296,0.0323,0.0359,0.0305,0.037,0.0389,0.04,0.0403,0.0406,0.0345,0.0344,0.0343,0.0342,0,-0.0029,-0.0042,-0.0029,-0.0025,-0.0023,0.0012,0.0032,0.0057,0.0106,0.0148,0.022,0.0273,0.027,0.0298,0.0265,0.0299,0.0298,0.0281,0.0334,0.0391,0.0346,0.0358,0.0363,0.0331,0.0333,0.0333,0.0334,0.0334,-0.0066,-0.0065,-0.0059,-0.0053,-0.0039,0.0012,0.0054,0.0113,0.0187,0.0276,0.0298,0.0352,0.0261,0.0248,0.0235,0.0204,0.0254,0.0255,0.0261,0.0267,0.027,0.0224,0.0183,0.0183,0.0184,0.0184,0.0184,0,-0.0085,-0.0078,-0.0073,-0.0043,-0.0011,-0.0014,0.0074,0.016,0.0278,0.0318,0.0402,0.0282,0.0308,0.022,0.0182,0.0169,0.0203,0.0144,0.0195,0.0205,0.0214,0.0216,0.0114,0.0114,0.0113,0.0113,0,0,-0.009,-0.0083,-0.0068,-0.0018,-0.0005,0.0072,0.013,0.0257,0.0327,0.0379,0.0358,0.0384,0.0274,0.0182,0.015,0.015,0.0193,0.0147,0.0209,0.0285,0.0294,0.0283,0.0297,0,0,0,0,0]}],[{"header":{"parameterUnit":"m.s-1","parameterCategory":2,"la1":30.2991,"la2":30.254,"lo1":-89.0895,"lo2":-89.0444,"dy":0.0017,"dx":0.0017,"nx":28,"ny":28,"refTime":"2023-08-18T21:00:00:Z","depth":"4","parameterNumber":2,"parameterNumberName":"U-component_of_CURRENTS"},"data":[0,0,0,0,0,0,0,0,0,0,0,0,0,0,0,0,0,0,0,0,0,0,0,0,0,0,0,0,0,0,0,0,0,0,0,0,0,0,0,0,0,0,0,0,0,0,0,0,0,0,0,0,0,0,0,0,0,0,-0.0256,-0.0256,0,-0.0245,-0.0245,-0.0245,-0.024,-0.024,-0.024,-0.024,-0.0327,-0.033,-0.0332,0,0,0,0,0,0,0,0,0,0,0,0,0,-0.0301,-0.03,-0.0256,-0.0256,-0.0256,-0.0245,-0.0245,-0.0245,-0.024,-0.024,-0.024,-0.024,-0.0327,-0.0329,-0.0332,0,0,0,0,0,0,0,0,0,0,0,0,0,-0.0286,-0.03,-0.0256,-0.0251,-0.025,-0.0245,-0.0245,-0.0245,-0.024,-0.024,-0.024,-0.0239,-0.0326,-0.0329,-0.0333,-0.0357,0,0,-0.0344,-0.0345,0,0,0,0,0,0,0,0,-0.0286,-0.0284,-0.0252,-0.0251,-0.0251,-0.0243,-0.0293,-0.0287,-0.024,-0.0245,-0.024,-0.0239,-0.0308,-0.0313,-0.0311,-0.0361,-0.0365,-0.0344,-0.0346,-0.0348,-0.0349,0,0,0,0,0,0,0,-0.0287,-0.0285,-0.0253,-0.0252,-0.0251,-0.0259,-0.0257,-0.0292,-0.028,-0.0244,-0.0244,-0.0241,-0.0308,-0.0307,-0.0313,-0.0366,-0.0344,-0.0347,-0.0349,-0.0351,-0.0533,-0.0536,0,0,0,0,0,0,-0.0286,-0.0285,-0.0253,-0.0252,-0.0268,-0.0258,-0.0256,-0.0246,-0.0277,-0.028,-0.0241,-0.0241,-0.0301,-0.0309,-0.0316,-0.0435,-0.0348,-0.0351,-0.0353,-0.0531,-0.0534,-0.0537,0,0,0,0,0,0,-0.0286,-0.0282,-0.0253,-0.0268,-0.0265,-0.0257,-0.0247,-0.0246,-0.0255,-0.0273,-0.0279,-0.0252,-0.0301,-0.0311,-0.037,-0.0435,-0.0353,-0.0356,-0.0527,-0.0532,-0.0535,-0.0617,0,0,0,0,0,0,-0.0288,-0.0283,-0.0274,-0.0268,-0.0264,-0.0243,-0.0247,-0.0246,-0.0253,-0.0253,-0.0285,-0.0292,-0.0302,-0.0364,-0.0373,-0.0439,-0.0359,-0.0524,-0.0529,-0.0534,-0.0611,-0.0623,-0.0634,0,0,0,0,0,-0.0289,-0.0278,-0.0273,-0.0269,-0.0252,-0.0243,-0.0242,-0.0237,-0.0254,-0.0248,-0.0293,-0.0292,-0.0403,-0.0369,-0.0379,-0.0447,-0.0522,-0.0528,-0.0534,-0.0605,-0.0621,-0.0633,0,0,0,0,0,0,-0.0288,-0.0276,-0.0271,-0.0254,-0.0246,-0.0242,-0.0238,-0.0247,-0.0275,-0.0293,-0.0317,-0.0327,-0.0405,-0.0413,-0.0374,-0.0515,-0.0466,-0.0475,-0.0518,-0.0532,-0.0543,-0.0508,-0.0362,0,0,0,0,0,-0.0285,-0.0273,-0.0263,-0.0248,-0.0247,-0.0249,-0.0248,-0.0253,-0.0276,-0.0287,-0.0324,-0.0376,-0.0436,-0.047,-0.0509,-0.0581,-0.0547,-0.0635,-0.0647,-0.0657,-0.0636,-0.0673,-0.0685,-0.0557,-0.0556,-0.0556,0,0,-0.0281,-0.0271,-0.0264,-0.0248,-0.0245,-0.0244,-0.0248,-0.0254,-0.0272,-0.0297,-0.0353,-0.0412,-0.0462,-0.0546,-0.0583,-0.0563,-0.0669,-0.0664,-0.0672,-0.0645,-0.068,-0.0692,-0.0703,-0.0561,-0.056,-0.0559,0,0,-0.0266,-0.026,-0.0246,-0.0245,-0.0244,-0.0247,-0.0254,-0.0273,-0.0297,-0.0363,-0.0399,-0.0481,-0.0572,-0.0614,-0.0652,-0.0746,-0.0724,-0.0792,-0.0831,-0.0869,-0.0879,-0.0887,-0.0824,-0.0826,-0.0805,-0.0805,-0.0806,0,-0.0259,-0.0242,-0.0241,-0.0234,-0.0238,-0.0252,-0.0254,-0.0278,-0.0323,-0.0357,-0.0391,-0.055,-0.0597,-0.0694,-0.0749,-0.077,-0.0764,-0.0775,-0.0881,-0.0889,-0.0896,-0.0829,-0.0831,-0.081,-0.081,-0.0809,-0.0809,0,-0.0241,-0.0231,-0.0227,-0.0223,-0.0228,-0.0234,-0.0265,-0.0296,-0.0356,-0.0396,-0.0516,-0.0603,-0.0697,-0.0752,-0.0793,-0.0892,-0.0858,-0.0884,-0.0838,-0.0913,-0.0838,-0.0838,-0.0817,-0.0815,-0.0814,-0.0813,0,0,-0.0214,-0.0212,-0.0211,-0.0208,-0.0231,-0.0229,-0.0273,-0.0309,-0.0342,-0.0449,-0.0519,-0.0673,-0.0746,-0.0792,-0.0868,-0.0921,-0.0975,-0.0949,-0.0949,-0.0868,-0.1005,-0.0844,-0.0826,-0.1051,-0.1052,-0.1053,-0.0917,0,-0.0197,-0.0179,-0.0194,-0.0191,-0.0187,-0.0224,-0.0253,-0.0301,-0.0375,-0.0447,-0.0571,-0.0678,-0.0755,-0.0844,-0.0914,-0.0975,-0.0987,-0.1004,-0.0957,-0.0952,-0.0789,-0.0826,-0.1058,-0.0916,-0.0916,-0.0916,-0.0916,0,-0.0174,-0.0165,-0.016,-0.017,-0.0174,-0.0186,-0.0236,-0.0274,-0.0372,-0.0446,-0.0579,-0.0676,-0.0806,-0.0861,-0.0959,-0.0985,-0.0995,-0.1013,-0.1009,-0.0825,-0.0792,-0.0837,-0.0915,-0.0915,-0.0915,-0.0915,-0.0915,0,-0.0148,-0.0142,-0.0136,-0.0143,-0.016,-0.0179,-0.0207,-0.0281,-0.0319,-0.0465,-0.0516,-0.0679,-0.0763,-0.0851,-0.0889,-0.0969,-0.0916,-0.1021,-0.0844,-0.0829,-0.0976,-0.0969,-0.1034,-0.1034,-0.1034,-0.1035,-0.1035,0,-0.0125,-0.0118,-0.0123,-0.0122,-0.0121,-0.0162,-0.0193,-0.0245,-0.033,-0.0356,-0.0533,-0.0561,-0.0781,-0.0782,-0.0845,-0.0791,-0.087,-0.0821,-0.0797,-0.1008,-0.1007,-0.0972,-0.0966,-0.1029,-0.1031,-0.1032,-0.1032,0,-0.0102,-0.0101,-0.009,-0.0104,-0.0107,-0.0121,-0.0166,-0.0191,-0.0276,-0.0316,-0.0371,-0.0487,-0.0515,-0.0589,-0.0663,-0.0683,-0.0672,-0.0602,-0.0703,-0.069,-0.0579,-0.058,-0.0484,-0.0478,-0.0472,-0.0468,-0.0464,0,-0.0088,-0.0081,-0.0073,-0.0066,-0.0076,-0.0097,-0.0106,-0.0175,-0.0194,-0.0225,-0.0226,-0.0266,-0.0332,-0.0271,-0.0378,-0.0402,-0.0415,-0.0385,-0.0623,-0.0543,-0.0529,-0.0539,-0.0547,-0.0455,-0.0454,-0.0452,-0.0451,0,-0.007,-0.007,-0.0061,-0.0046,-0.0046,-0.0034,-0.005,-0.0045,-0.0096,-0.0146,-0.0109,-0.0138,-0.0104,-0.0192,-0.0145,-0.0184,-0.0436,-0.033,-0.0348,-0.0573,-0.0506,-0.0501,-0.0515,-0.0432,-0.0434,-0.0436,-0.0437,0,-0.0061,-0.005,-0.0041,-0.0027,-0.0011,0.002,0.0009,0.0018,0.0003,-0.0031,0.0027,-0.0003,-0.0047,-0.0058,-0.0014,-0.0036,-0.0142,-0.0222,-0.0248,-0.027,-0.0274,-0.0163,0.0061,0,0,0,0,0,-0.0053,-0.0038,-0.0024,0.0005,0.0024,0.0036,0.005,0.0038,0.0034,0.0069,0.0033,0.0068,0.0064,0.006,0.0055,0.0041,-0.0144,0.0037,-0.025,-0.0325,-0.0347,-0.0378,0,0,0,0,0,0,-0.0046,-0.0031,-0.002,0.0028,0.0055,0.0082,0.0097,0.0096,0.0108,0.0099,0.0092,0.0076,0.0065,0.0065,0.0058,0.0054,-0.0126,0.0024,0.0025,-0.0313,-0.0333,-0.0351,-0.039,0,0,0,0,0]},{"header":{"parameterUnit":"m.s-1","parameterCategory":2,"la1":30.2991,"la2":30.254,"lo1":-89.0895,"lo2":-89.0444,"dy":0.0017,"dx":0.0017,"nx":28,"ny":28,"refTime":"2023-08-18T21:00:00:Z","depth":"4","parameterNumber":3,"parameterNumberName":"V-component_of_CURRENTS"},"data":[0,0,0,0,0,0,0,0,0,0,0,0,0,0,0,0,0,0,0,0,0,0,0,0,0,0,0,0,0,0,0,0,0,0,0,0,0,0,0,0,0,0,0,0,0,0,0,0,0,0,0,0,0,0,0,0,0,0,-0.017,-0.0171,0,-0.0243,-0.0244,-0.0245,-0.0227,-0.0226,-0.0224,-0.0223,-0.0255,-0.0258,-0.026,0,0,0,0,0,0,0,0,0,0,0,0,0,-0.0014,-0.0017,-0.017,-0.0171,-0.0171,-0.0243,-0.0244,-0.0245,-0.0227,-0.0225,-0.0224,-0.0222,-0.0255,-0.0257,-0.026,0,0,0,0,0,0,0,0,0,0,0,0,0,-0.0084,-0.0018,-0.017,-0.0171,-0.0172,-0.0243,-0.0244,-0.0246,-0.0228,-0.0225,-0.0223,-0.0221,-0.0254,-0.0257,-0.026,-0.0325,0,0,-0.0271,-0.0272,0,0,0,0,0,0,0,0,-0.008,-0.009,-0.017,-0.0171,-0.0172,-0.0223,-0.0201,-0.027,-0.0228,-0.0207,-0.0223,-0.022,-0.0242,-0.0247,-0.0266,-0.0327,-0.0328,-0.0271,-0.0273,-0.0274,-0.0275,0,0,0,0,0,0,0,-0.0075,-0.0087,-0.0199,-0.0171,-0.0172,-0.0168,-0.0175,-0.0215,-0.0236,-0.0208,-0.0207,-0.0216,-0.0242,-0.0263,-0.0267,-0.0329,-0.0271,-0.0274,-0.0276,-0.0277,-0.039,-0.0391,0,0,0,0,0,0,-0.0069,-0.0083,-0.0197,-0.0201,-0.0119,-0.0172,-0.0181,-0.0209,-0.0236,-0.0238,-0.0217,-0.0214,-0.0259,-0.0263,-0.0268,-0.0296,-0.0274,-0.0278,-0.0279,-0.0389,-0.0391,-0.0392,0,0,0,0,0,0,-0.0066,-0.0079,-0.0194,-0.0142,-0.0156,-0.0177,-0.021,-0.0212,-0.0234,-0.0243,-0.0244,-0.0236,-0.0257,-0.0263,-0.0314,-0.0299,-0.0279,-0.0282,-0.0388,-0.039,-0.0391,-0.0384,0,0,0,0,0,0,-0.0061,-0.0078,-0.0101,-0.0142,-0.0159,-0.0238,-0.0212,-0.0215,-0.0242,-0.0239,-0.026,-0.026,-0.0256,-0.0309,-0.0317,-0.0303,-0.0285,-0.0387,-0.0389,-0.0391,-0.0383,-0.0385,-0.0387,0,0,0,0,0,-0.0056,-0.0102,-0.0102,-0.0115,-0.0188,-0.0239,-0.0248,-0.0254,-0.0245,-0.0264,-0.0283,-0.026,-0.0324,-0.0314,-0.0323,-0.0309,-0.0386,-0.0388,-0.0391,-0.0382,-0.0385,-0.0387,0,0,0,0,0,0,-0.005,-0.0106,-0.0106,-0.0167,-0.0197,-0.0235,-0.0262,-0.0267,-0.03,-0.0302,-0.0298,-0.0302,-0.0334,-0.034,-0.0328,-0.0348,-0.0342,-0.0346,-0.0333,-0.0335,-0.0337,-0.0335,-0.0288,0,0,0,0,0,-0.0059,-0.0108,-0.0146,-0.0195,-0.0212,-0.0239,-0.0262,-0.0272,-0.0305,-0.0317,-0.0333,-0.0346,-0.0355,-0.036,-0.0384,-0.0415,-0.0394,-0.0406,-0.0408,-0.0409,-0.0415,-0.0362,-0.0358,-0.0399,-0.0399,-0.0399,0,0,-0.0071,-0.0108,-0.0135,-0.0196,-0.0222,-0.0256,-0.0248,-0.0297,-0.0323,-0.0319,-0.0369,-0.037,-0.0371,-0.0392,-0.0404,-0.0391,-0.0391,-0.0412,-0.0413,-0.0418,-0.0363,-0.0359,-0.0355,-0.0401,-0.04,-0.04,0,0,-0.0108,-0.0151,-0.0191,-0.0221,-0.0267,-0.0288,-0.0302,-0.035,-0.0366,-0.0425,-0.0405,-0.0415,-0.0453,-0.0435,-0.043,-0.0469,-0.0413,-0.0452,-0.0449,-0.0396,-0.0391,-0.0387,-0.0366,-0.0359,-0.044,-0.044,-0.044,0,-0.0111,-0.0171,-0.021,-0.0248,-0.0274,-0.03,-0.0335,-0.0368,-0.0425,-0.0443,-0.0443,-0.0476,-0.0474,-0.0467,-0.0455,-0.0471,-0.0429,-0.0433,-0.0395,-0.039,-0.0385,-0.0365,-0.0357,-0.044,-0.044,-0.044,-0.044,0,-0.017,-0.021,-0.0241,-0.0293,-0.0329,-0.0373,-0.0411,-0.0448,-0.0472,-0.0496,-0.0526,-0.0531,-0.0531,-0.0518,-0.0493,-0.0448,-0.0427,-0.0408,-0.0379,-0.038,-0.0359,-0.0352,-0.044,-0.044,-0.044,-0.044,0,0,-0.0186,-0.0263,-0.0271,-0.0287,-0.0356,-0.0388,-0.0441,-0.0487,-0.051,-0.0556,-0.058,-0.0576,-0.056,-0.0553,-0.0513,-0.0459,-0.0387,-0.0399,-0.0396,-0.0363,-0.0267,-0.0293,-0.0288,-0.0327,-0.0326,-0.0325,-0.0269,0,-0.0209,-0.0269,-0.0314,-0.0364,-0.0391,-0.0434,-0.0475,-0.0522,-0.0561,-0.0596,-0.0598,-0.0612,-0.0575,-0.0552,-0.0495,-0.0417,-0.0364,-0.0405,-0.0286,-0.0284,-0.0293,-0.0279,-0.032,-0.0263,-0.0261,-0.026,-0.0259,0,-0.0243,-0.0275,-0.0328,-0.0379,-0.0397,-0.0439,-0.0497,-0.054,-0.0593,-0.062,-0.0633,-0.0631,-0.0583,-0.0547,-0.0423,-0.0433,-0.0345,-0.029,-0.0286,-0.0308,-0.0296,-0.0262,-0.0246,-0.0247,-0.0248,-0.0249,-0.0249,0,-0.0217,-0.0283,-0.0319,-0.0342,-0.041,-0.0445,-0.0487,-0.0551,-0.0579,-0.0631,-0.0643,-0.0619,-0.0591,-0.0491,-0.0399,-0.0372,-0.0271,-0.0229,-0.0189,-0.0191,-0.0185,-0.019,-0.0135,-0.0135,-0.0135,-0.0135,-0.0136,0,-0.0224,-0.0251,-0.0311,-0.0332,-0.0371,-0.0434,-0.0485,-0.0528,-0.0583,-0.0595,-0.0638,-0.0618,-0.0557,-0.0505,-0.0408,-0.0299,-0.028,-0.0192,-0.0171,-0.0189,-0.0195,-0.018,-0.0186,-0.0133,-0.0134,-0.0134,-0.0135,0,-0.0203,-0.0241,-0.0275,-0.034,-0.0363,-0.0396,-0.0474,-0.0502,-0.0561,-0.0575,-0.0581,-0.0593,-0.0518,-0.0498,-0.0358,-0.0309,-0.0215,-0.0181,-0.0246,-0.023,-0.0161,-0.0167,-0.0101,-0.0101,-0.0101,-0.0101,-0.0102,0,-0.0201,-0.0216,-0.0267,-0.0281,-0.0321,-0.0375,-0.0407,-0.0482,-0.0497,-0.053,-0.0514,-0.0499,-0.0489,-0.0372,-0.0326,-0.0234,-0.0203,-0.0181,-0.0125,-0.0168,-0.0154,-0.016,-0.0166,-0.0102,-0.0102,-0.0102,-0.0102,0,-0.0187,-0.0205,-0.023,-0.0251,-0.0288,-0.032,-0.0366,-0.0371,-0.0427,-0.0465,-0.0437,-0.0424,-0.0375,-0.0324,-0.031,-0.0216,-0.0213,-0.0182,-0.0178,-0.0125,-0.0168,-0.0156,-0.0161,-0.0103,-0.0103,-0.0103,-0.0103,0,-0.0172,-0.0178,-0.0201,-0.0223,-0.025,-0.0267,-0.0299,-0.0313,-0.0339,-0.0375,-0.0341,-0.0347,-0.0349,-0.031,-0.0262,-0.0237,-0.0175,-0.0136,-0.0133,-0.0132,-0.017,-0.0231,-0.0163,0,0,0,0,0,-0.0159,-0.0162,-0.0172,-0.0197,-0.0216,-0.0236,-0.0266,-0.0295,-0.0326,-0.0293,-0.0327,-0.0283,-0.0253,-0.0249,-0.0213,-0.0232,-0.0169,-0.0188,-0.0122,-0.0108,-0.0107,-0.015,0,0,0,0,0,0,-0.0149,-0.0157,-0.0162,-0.0167,-0.0176,-0.0203,-0.0222,-0.0245,-0.0231,-0.0257,-0.0242,-0.0257,-0.0231,-0.0269,-0.0207,-0.0202,-0.015,-0.0186,-0.0184,-0.0109,-0.0108,-0.0107,-0.0151,0,0,0,0,0]}]]